DW3857 Weather Reports


time (UTC)temp
C
wind
direction
speed
KPH
gust
KPH
rain 1hr
cm
rain 24hr
cm
rain mn
cm
humidity
%
barometer
mb
20260507211510 12 0.0 0.0 0.00 0.05 0.05 84 1013.7
20260507210008 12 0.0 0.0 0.00 0.05 0.05 84 1013.7
20260507204507 12 0.0 0.0 0.00 0.05 0.05 85 1013.5
20260507203006 12 0.0 0.0 0.00 0.05 0.05 84 1013.5
20260507201505 13 0.0 0.0 0.00 0.05 0.05 83 1013.5
20260507200003 12 0.0 0.0 0.00 0.05 0.05 84 1013.4
20260507194502 13 0.0 0.0 0.03 0.05 0.05 84 1013.2
20260507193110 13 0.0 0.0 0.03 0.05 0.05 84 1013.0
20260507191600 13 0.0 0.0 0.03 0.05 0.05 83 1012.8
20260507184554 13 0.0 0.0 0.03 0.03 0.03 83 1012.2
20260507183057 13 0.0 0.0 0.03 0.03 0.03 83 1012.0
20260507181551 13 0.0 0.0 0.03 0.03 0.03 83 1011.9
20260507180053 13 0.0 0.0 0.03 0.03 0.03 81 1012.0
20260507174548 14 0.0 0.0 0.00 0.00 0.00 79 1011.9
20260507173053 15 0.0 0.0 0.00 0.00 0.00 76 1011.8
20260507171546 15 0.0 0.0 0.00 0.00 0.00 72 1011.6
20260507170046 16 0.0 0.0 0.00 0.00 0.00 67 1011.4
20260507164543 16 0.0 0.0 0.00 0.00 0.00 62 1011.1
20260507163044 16 0.0 0.0 0.00 0.00 0.00 62 1011.2
20260507161543 17 0.0 0.0 0.00 0.00 0.00 61 1011.0
20260507160042 17 0.0 0.0 0.00 0.00 0.00 57 1010.8
20260507154542 17 0.0 0.0 0.00 0.00 0.00 56 1010.7
20260507153049 18 0.0 0.0 0.00 0.00 0.00 55 1010.5
20260507151541 18 0.0 0.0 0.00 0.00 0.00 52 1010.4
20260507150040 18 0.0 0.0 0.00 0.00 0.00 52 1010.4
20260507144545 19 0.0 0.0 0.00 0.00 0.00 50 1010.3
20260507143041 19 0.0 0.0 0.00 0.00 0.00 51 1010.3
20260507141538 20 0.0 0.0 0.00 0.00 0.00 47 1010.3
20260507140057 21 0.0 0.0 0.00 0.00 0.00 46 1010.2
20260507134536 21 0.0 0.0 0.00 0.00 0.00 44 1010.2
20260507133036 19 0.0 0.0 0.00 0.00 0.00 49 1010.4
20260507131538 20 0.0 0.0 0.00 0.00 0.00 44 1010.5
20260507130041 20 0.0 0.0 0.00 0.00 0.00 46 1010.5
20260507124531 18 0.0 0.0 0.00 0.00 0.00 47 1010.5
20260507123038 18 0.0 0.0 0.00 0.00 0.00 46 1010.6
20260507121539 19 0.0 0.0 0.00 0.00 0.00 46 1010.6
20260507120028 18 0.0 0.0 0.00 0.00 0.00 49 1010.8
20260507114525 18 0.0 0.0 0.00 0.00 0.00 50 1010.8
20260507113033 17 0.0 0.0 0.00 0.00 0.00 51 1010.8
20260507111526 18 0.0 0.0 0.00 0.00 0.00 52 1011.0
20260507110027 17 0.0 0.0 0.00 0.00 0.00 51 1011.1
20260507104520 17 0.0 0.0 0.00 0.00 0.00 53 1011.3
20260507103019 17 0.0 0.0 0.00 0.00 0.00 53 1011.5
20260507101527 17 0.0 0.0 0.00 0.00 0.00 53 1011.5
20260507100026 16 0.0 0.0 0.00 0.00 0.00 55 1011.6
20260507094521 17 0.0 0.0 0.00 0.00 0.00 51 1011.3
20260507093032 17 0.0 0.0 0.00 0.00 0.00 51 1011.3
20260507091513 17 0.0 0.0 0.00 0.00 0.00 52 1011.1
20260507090016 16 0.0 0.0 0.00 0.00 0.00 53 1010.9
20260507084509 16 0.0 0.0 0.00 0.00 0.00 53 1010.7
20260507083013 16 0.0 0.0 0.00 0.00 0.00 54 1010.5
20260507081506 16 0.0 0.0 0.00 0.00 0.00 55 1010.2
20260507080005 16 0.0 0.0 0.00 0.00 0.00 57 1010.0
20260507074508 16 0.0 0.0 0.00 0.00 0.00 59 1010.1
20260507073002 15 0.0 0.0 0.00 0.00 0.00 59 1009.8
20260507071613 15 0.0 0.0 0.00 0.00 0.00 60 1009.5
20260507070101 14 0.0 0.0 0.00 0.00 0.00 61 1009.4
20260507064559 14 0.0 0.0 0.00 0.00 0.00 62 1009.4
20260507063100 14 0.0 0.0 0.00 0.00 0.00 62 1009.3
20260507061556 14 0.0 0.0 0.00 0.00 0.00 62 1009.2
20260507060054 14 0.0 0.0 0.00 0.00 0.00 62 1009.1
20260507054604 14 0.0 0.0 0.00 0.00 0.00 62 1008.9
20260507053055 14 0.0 0.0 0.00 0.00 0.00 63 1008.6
20260507051551 14 0.0 0.0 0.00 0.00 0.00 63 1008.6
20260507050049 13 0.0 0.0 0.00 0.00 0.00 63 1008.4
20260507044546 13 0.0 0.0 0.00 0.00 0.00 63 1008.2
20260507043045 13 0.0 0.0 0.00 0.00 0.00 64 1007.9
20260507041543 13 0.0 0.0 0.00 0.00 0.00 64 1007.7
20260507040056 13 0.0 0.0 0.00 0.00 0.00 64 1007.8
20260507034552 13 0.0 0.0 0.00 0.00 0.00 64 1007.8
20260507033043 14 0.0 0.0 0.00 0.00 0.00 64 1007.7
20260507031539 14 0.0 0.0 0.00 0.00 0.00 64 1007.5
20260507030038 14 0.0 0.0 0.00 0.00 0.00 65 1007.5
20260507024537 14 0.0 0.0 0.00 0.00 0.00 66 1007.3
20260507023035 14 0.0 0.0 0.00 0.00 0.00 66 1007.3
20260507021533 15 0.0 0.0 0.00 0.00 0.00 66 1007.3
20260507020034 15 0.0 0.0 0.00 0.00 0.00 66 1007.2
20260507014531 15 0.0 0.0 0.00 0.00 0.00 66 1007.0
20260507013036 15 0.0 0.0 0.00 0.00 0.00 66 1007.0
20260507011537 15 0.0 0.0 0.00 0.00 0.00 65 1006.8
20260507010029 15 0.0 0.0 0.00 0.00 0.00 65 1006.8
20260507004525 15 0.0 0.0 0.00 0.00 0.00 65 1007.0
20260507003023 15 0.0 0.0 0.00 0.00 0.00 64 1006.9
20260507001522 16 0.0 0.0 0.00 0.00 0.00 63 1006.6
20260507000020 16 0.0 0.0 0.00 0.00 0.00 64 1006.5
20260506234525 16 0.0 0.0 0.00 0.00 0.00 65 1006.4
20260506233019 16 0.0 0.0 0.00 0.00 0.00 69 1006.4
20260506231517 16 0.0 0.0 0.00 0.00 0.00 69 1006.2
20260506230014 16 0.0 0.0 0.00 0.00 0.00 68 1006.2
20260506224520 16 0.0 0.0 0.00 0.00 0.00 64 1005.8
20260506223009 16 0.0 0.0 0.00 0.00 0.00 64 1005.4
20260506221507 16 0.0 0.0 0.00 0.00 0.00 64 1005.2
20260506220004 17 0.0 0.0 0.00 0.00 0.00 63 1004.8
20260506214502 17 0.0 0.0 0.00 0.00 0.00 63 1004.5
20260506213001 17 0.0 0.0 0.00 0.00 0.00 62 1003.9